Weather History for Casablanca, Morocco

Change the Weather History Date:

Saturday, January 25, 2014

  Actual Average (GMMN) Record (GMMN)
Temperature  
Mean Temperature 54 °F -  
Max Temperature 62 °F 64 °F 75 °F (2007)
Min Temperature 46 °F 43 °F 36 °F (2013)
Degree Days  
Heating Degree Days 11    
Growing Degree Days 4 (Base 50)    
Moisture  
Dew Point 49 °F    
Average Humidity 78    
Maximum Humidity 88    
Minimum Humidity 59    
Precipitation  
Precipitation 0.00 in 0.08 in - ()
Sea Level Pressure  
Sea Level Pressure 30.34 in    
Wind  
Wind Speed 3 mph ()    
Max Wind Speed 7 mph    
Max Gust Speed -    
Visibility 7.3 miles    
Events      
Averages and records for this station are not official NWS values.
T = Trace of Precipitation, MM = Missing Value Source: Averaged Metar Reports

Daily Weather History Graph

Daily Weather History Graph

Search for Another Location

Airport:

Trip Planner

Search our weather history database for the weather conditions in past years. The results will help you decide how hot, cold, wet, or windy it might be!

Date:

Astronomy

Jan. 25, 2014 Rise Set
Actual Time 7:31 AM WET 5:55 PM WET
Civil Twilight 7:04 AM WET 6:21 PM WET
Nautical Twilight 6:34 AM WET 6:51 PM WET
Astronomical Twilight 6:05 AM WET 7:21 PM WET
Moon 1:50 AM WET (1/25) 12:44 PM WET (1/25)
Length of Visible Light 11h 16m
Length of Day
10h 23m
Last Quarter, 36% of the Moon is Illuminated
Jan 25
Last Quarter
Jan 30
New
Feb 6
First Quarter
Feb 14
Full
Feb 22
Last Quarter

Hourly Weather History & Observations

Time (WET) Temp. Windchill Dew Point Humidity Pressure Visibility Wind Dir Wind Speed Gust Speed Precip Events Conditions
12:00 AM 52 °F - 44 °F 66% 30.38 in 12 mi South 2.3 mph - -  
12:00 AM 51.8 °F - 44.6 °F 76% 30.36 in - South 2.3 mph - N/A   Clear
1:00 AM 50.0 °F - 44.6 °F 82% 30.36 in - South 2.3 mph - N/A   Clear
2:00 AM 50.0 °F - 44.6 °F 82% 30.36 in - South 2.3 mph - N/A   Clear
3:00 AM 49 °F - 45 °F 79% 30.37 in 12 mi South 2.3 mph - -  
3:00 AM 50.0 °F - 44.6 °F 82% 30.36 in - South 2.3 mph - N/A   Clear
4:00 AM 48.2 °F - 44.6 °F 87% 30.36 in - South 2.3 mph - N/A   Clear
5:00 AM 46.4 °F 44.3 °F 42.8 °F 87% 30.33 in - SSW 4.6 mph - N/A   Clear
6:00 AM 46 °F - 42 °F 82% 30.35 in 12 mi SSW 4.6 mph - -  
6:00 AM 46.4 °F 44.3 °F 42.8 °F 87% 30.33 in - SSW 4.6 mph - N/A   Clear
7:00 AM 46.4 °F 44.3 °F 42.8 °F 87% 30.33 in - SSW 4.6 mph - N/A   Clear
8:00 AM 46.4 °F 45.2 °F 42.8 °F 87% 30.33 in - SSW 3.5 mph - N/A   Clear
9:00 AM 50 °F - 44 °F 71% 30.39 in 12 mi SSE 3.5 mph - -   Scattered Clouds
9:00 AM 50.0 °F - 42.8 °F 76% 30.36 in - SSE 3.5 mph - N/A   Clear
10:00 AM 55.4 °F - 46.4 °F 72% 30.36 in - South 3.5 mph - N/A   Clear
11:00 AM 59.0 °F - 50.0 °F 72% 30.36 in 6.2 mi SSE 2.3 mph - N/A   Scattered Clouds
12:00 PM 61 °F - 50 °F 59% 30.39 in 6 mi NNE 3.5 mph - -   Mostly Cloudy
12:00 PM 60.8 °F - 50.0 °F 68% 30.36 in 6.2 mi NNE 3.5 mph - N/A   Mostly Cloudy
1:00 PM 60.8 °F - 51.8 °F 72% 30.33 in 6.2 mi NNW 3.5 mph - N/A   Mostly Cloudy
2:00 PM 60.8 °F - 51.8 °F 72% 30.33 in 6.2 mi North 4.6 mph - N/A   Mostly Cloudy
3:00 PM 61 °F - 52 °F 64% 30.34 in 6 mi North 4.6 mph - -   Mostly Cloudy
3:00 PM 60.8 °F - 51.8 °F 72% 30.33 in 6.2 mi North 4.6 mph - N/A   Mostly Cloudy
4:00 PM 60.8 °F - 53.6 °F 77% 30.33 in 6.2 mi NNW 6.9 mph - N/A   Partly Cloudy
5:00 PM 59.0 °F - 53.6 °F 82% 30.30 in 6.2 mi North 4.6 mph - N/A   Mostly Cloudy
6:00 PM 59 °F - 53 °F 75% 30.32 in 6 mi NNE 4.6 mph - -   Mostly Cloudy
6:00 PM 59.0 °F - 53.6 °F 82% 30.30 in 6.2 mi NNE 4.6 mph - N/A   Mostly Cloudy
7:00 PM 59.0 °F - 53.6 °F 82% 30.30 in 6.2 mi North 4.6 mph - N/A   Scattered Clouds
8:00 PM 59.0 °F - 55.4 °F 88% 30.30 in 6.2 mi NNE 3.5 mph - N/A   Mostly Cloudy
9:00 PM 59 °F - 55 °F 82% 30.35 in 6 mi ENE 5.8 mph - -   Mostly Cloudy
9:00 PM 59.0 °F - 55.4 °F 88% 30.30 in 6.2 mi ENE 5.8 mph - N/A   Mostly Cloudy
10:00 PM 59.0 °F - 53.6 °F 82% 30.30 in 6.2 mi NE 3.5 mph - N/A   Mostly Cloudy
11:00 PM 59.0 °F - 53.6 °F 82% 30.30 in 6.2 mi East 3.5 mph - N/A   Mostly Cloudy